Location: Newark
(33.6439°N, 114.9881°W)
Time: 19:55:20
(UTC+00:00)

Tiros 1 - Pass Details

Date: 26 July 2019
Orbit: 631 x 664 km, 48.4° (Epoch: 25 August)

Event Time Altitude Azimuth Distance (km) Brightness Sun altitude
Rises 19:29:54 0° 285° (WNW) 2,982 10.5 75.2°
Reaches altitude 10° 19:33:03 10° 307° (NW) 2,076 9.8 75.4°
Maximum altitude 19:36:06 16° 346° (NNW) 1,687 9.4 75.5°
Drops below altitude 10° 19:39:09 10° 26° (NNE) 2,082 9.8 75.6°
Sets 19:42:19 0° 47° (NE) 2,996 10.5 75.7°
